| time (UTC) | temp C | wind direction | speed KPH | gust KPH | rain 1hr cm | rain 24hr cm | rain mn cm | humidity % | barometer mb |
| 20260509011605 | 20 | 67 | 3.2 | 8.0 | 0.00 | 0.00 | 0.00 | 73 | 1013.4 |
| 20260509011104 | 20 | 77 | 3.2 | 6.4 | 0.00 | 0.00 | 0.00 | 73 | 1013.5 |
| 20260509010604 | 20 | 84 | 4.8 | 6.4 | 0.00 | 0.00 | 0.00 | 74 | 1013.5 |
| 20260509010104 | 20 | 86 | 6.4 | 11.3 | 0.00 | 0.00 | 0.00 | 73 | 1013.2 |
| 20260509005605 | 20 | 105 | 8.0 | 11.3 | 0.00 | 0.00 | 0.00 | 73 | 1013.4 |
| 20260509005104 | 20 | 102 | 8.0 | 11.3 | 0.00 | 0.00 | 0.00 | 71 | 1013.4 |
| 20260509004604 | 20 | 114 | 4.8 | 11.3 | 0.00 | 0.00 | 0.00 | 70 | 1013.4 |
| 20260509004104 | 21 | 108 | 3.2 | 9.7 | 0.00 | 0.00 | 0.00 | 69 | 1013.6 |
| 20260509003608 | 22 | 43 | 0.0 | 3.2 | 0.00 | 0.00 | 0.00 | 66 | 1013.5 |
| 20260509003604 | 21 | 105 | 0.0 | 4.8 | 0.00 | 0.00 | 0.00 | 67 | 1013.5 |
| 20260509002604 | 22 | 43 | 0.0 | 3.2 | 0.00 | 0.00 | 0.00 | 66 | 1013.4 |
| 20260509002102 | 22 | 43 | 0.0 | 3.2 | 0.00 | 0.00 | 0.00 | 67 | 1013.4 |
| 20260509001606 | 22 | 43 | 1.6 | 4.8 | 0.00 | 0.00 | 0.00 | 68 | 1013.6 |
| 20260509001602 | 22 | 43 | 0.0 | 3.2 | 0.00 | 0.00 | 0.00 | 67 | 1013.5 |
| 20260509000601 | 22 | 43 | 1.6 | 4.8 | 0.00 | 0.00 | 0.00 | 68 | 1013.6 |
| 20260509000106 | 23 | 14 | 1.6 | 4.8 | 0.00 | 0.00 | 0.00 | 66 | 1013.6 |
| 20260508235102 | 23 | 53 | 1.6 | 4.8 | 0.00 | 0.00 | 0.00 | 65 | 1013.7 |
| 20260508234602 | 23 | 242 | 1.6 | 4.8 | 0.00 | 0.00 | 0.00 | 65 | 1013.7 |
| 20260508234102 | 23 | 171 | 1.6 | 6.4 | 0.00 | 0.00 | 0.00 | 64 | 1013.6 |
| 20260508233601 | 23 | 200 | 1.6 | 6.4 | 0.00 | 0.00 | 0.00 | 64 | 1013.6 |
| 20260508233100 | 23 | 45 | 3.2 | 8.0 | 0.00 | 0.00 | 0.00 | 65 | 1013.6 |
| 20260508232606 | 22 | 296 | 4.8 | 11.3 | 0.00 | 0.00 | 0.00 | 64 | 1013.7 |
| 20260508232602 | 23 | 313 | 3.2 | 11.3 | 0.00 | 0.00 | 0.00 | 62 | 1013.6 |
| 20260508231601 | 23 | 286 | 4.8 | 11.3 | 0.00 | 0.00 | 0.00 | 63 | 1013.7 |
| 20260508231059 | 23 | 267 | 3.2 | 11.3 | 0.00 | 0.00 | 0.00 | 61 | 1013.7 |
| 20260508230602 | 24 | 316 | 1.6 | 8.0 | 0.00 | 0.00 | 0.00 | 60 | 1013.8 |
| 20260508230100 | 24 | 237 | 1.6 | 8.0 | 0.00 | 0.00 | 0.00 | 62 | 1013.9 |
| 20260508225602 | 25 | 118 | 1.6 | 6.4 | 0.00 | 0.00 | 0.00 | 61 | 1013.9 |
| 20260508225100 | 24 | 98 | 0.0 | 4.8 | 0.00 | 0.00 | 0.00 | 62 | 1014.0 |
| 20260508224602 | 24 | 101 | 1.6 | 4.8 | 0.00 | 0.00 | 0.00 | 63 | 1014.0 |
| 20260508224058 | 24 | 161 | 1.6 | 6.4 | 0.00 | 0.00 | 0.00 | 63 | 1014.1 |
| 20260508223558 | 23 | 268 | 1.6 | 8.0 | 0.00 | 0.00 | 0.00 | 63 | 1014.1 |
| 20260508223058 | 24 | 43 | 1.6 | 8.0 | 0.00 | 0.00 | 0.00 | 65 | 1014.2 |
| 20260508222557 | 23 | 314 | 3.2 | 9.7 | 0.00 | 0.00 | 0.00 | 65 | 1014.2 |
| 20260508222102 | 23 | 340 | 3.2 | 9.7 | 0.00 | 0.00 | 0.00 | 67 | 1014.3 |
| 20260508222058 | 23 | 323 | 3.2 | 9.7 | 0.00 | 0.00 | 0.00 | 65 | 1014.3 |
| 20260508221057 | 23 | 14 | 3.2 | 9.7 | 0.00 | 0.00 | 0.00 | 67 | 1014.4 |
| 20260508220558 | 22 | 54 | 3.2 | 9.7 | 0.00 | 0.00 | 0.00 | 68 | 1014.4 |
| 20260508220058 | 21 | 19 | 3.2 | 9.7 | 0.00 | 0.00 | 0.00 | 73 | 1014.4 |
| 20260508215557 | 20 | 315 | 4.8 | 12.9 | 0.00 | 0.00 | 0.00 | 74 | 1014.5 |
| 20260508215102 | 20 | 259 | 4.8 | 16.1 | 0.00 | 0.00 | 0.00 | 74 | 1014.6 |
| 20260508215058 | 20 | 293 | 4.8 | 12.9 | 0.00 | 0.00 | 0.00 | 75 | 1014.6 |
| 20260508214058 | 20 | 253 | 4.8 | 16.1 | 0.00 | 0.00 | 0.00 | 72 | 1014.8 |
| 20260508213557 | 21 | 269 | 6.4 | 16.1 | 0.00 | 0.00 | 0.00 | 70 | 1014.8 |
| 20260508213057 | 21 | 265 | 4.8 | 16.1 | 0.00 | 0.00 | 0.00 | 70 | 1014.8 |
| 20260508212557 | 21 | 304 | 4.8 | 12.9 | 0.00 | 0.00 | 0.00 | 70 | 1014.9 |
| 20260508212058 | 21 | 263 | 4.8 | 12.9 | 0.00 | 0.00 | 0.00 | 70 | 1014.9 |
| 20260508211556 | 22 | 271 | 3.2 | 11.3 | 0.00 | 0.00 | 0.00 | 68 | 1014.9 |
| 20260508211055 | 22 | 275 | 3.2 | 9.7 | 0.00 | 0.00 | 0.00 | 66 | 1015.0 |
| 20260508210556 | 23 | 319 | 1.6 | 8.0 | 0.00 | 0.00 | 0.00 | 67 | 1015.0 |
| 20260508210055 | 23 | 320 | 1.6 | 8.0 | 0.00 | 0.00 | 0.00 | 68 | 1015.1 |
| 20260508205555 | 22 | 329 | 3.2 | 11.3 | 0.00 | 0.00 | 0.00 | 68 | 1015.1 |
| 20260508205056 | 22 | 37 | 4.8 | 11.3 | 0.00 | 0.00 | 0.00 | 70 | 1015.1 |
| 20260508204556 | 22 | 30 | 3.2 | 12.9 | 0.00 | 0.00 | 0.00 | 71 | 1015.2 |
| 20260508204100 | 21 | 9 | 4.8 | 14.5 | 0.00 | 0.00 | 0.00 | 73 | 1015.2 |
| 20260508204056 | 21 | 71 | 3.2 | 12.9 | 0.00 | 0.00 | 0.00 | 72 | 1015.2 |
| 20260508203100 | 21 | 345 | 3.2 | 12.9 | 0.00 | 0.00 | 0.00 | 76 | 1015.3 |
| 20260508203056 | 21 | 309 | 6.4 | 14.5 | 0.00 | 0.00 | 0.00 | 73 | 1015.3 |
| 20260508202055 | 19 | 291 | 3.2 | 12.9 | 0.00 | 0.00 | 0.00 | 78 | 1015.3 |
| 20260508201555 | 19 | 266 | 3.2 | 12.9 | 0.00 | 0.00 | 0.00 | 79 | 1015.3 |
| 20260508201055 | 18 | 265 | 3.2 | 9.7 | 0.00 | 0.00 | 0.00 | 81 | 1015.4 |
| 20260508200602 | 18 | 239 | 3.2 | 8.0 | 0.00 | 0.00 | 0.00 | 79 | 1015.5 |
| 20260508200556 | 18 | 254 | 3.2 | 9.7 | 0.00 | 0.00 | 0.00 | 81 | 1015.4 |
| 20260508195555 | 19 | 247 | 1.6 | 8.0 | 0.00 | 0.00 | 0.00 | 76 | 1015.4 |
| 20260508195053 | 20 | 213 | 3.2 | 14.5 | 0.00 | 0.00 | 0.00 | 75 | 1015.5 |
| 20260508194554 | 20 | 196 | 4.8 | 14.5 | 0.00 | 0.00 | 0.00 | 73 | 1015.5 |
| 20260508194053 | 20 | 30 | 4.8 | 14.5 | 0.00 | 0.00 | 0.00 | 73 | 1015.5 |
| 20260508193553 | 20 | 9 | 3.2 | 14.5 | 0.00 | 0.00 | 0.00 | 73 | 1015.6 |
| 20260508193056 | 20 | 292 | 1.6 | 11.3 | 0.00 | 0.00 | 0.00 | 76 | 1015.6 |
| 20260508193052 | 19 | 92 | 1.6 | 8.0 | 0.00 | 0.00 | 0.00 | 77 | 1015.7 |
| 20260508192056 | 19 | 144 | 1.6 | 16.1 | 0.00 | 0.00 | 0.00 | 76 | 1015.8 |
| 20260508192051 | 19 | 209 | 1.6 | 6.4 | 0.00 | 0.00 | 0.00 | 77 | 1015.7 |
| 20260508191551 | 19 | 78 | 1.6 | 16.1 | 0.00 | 0.00 | 0.00 | 77 | 1015.8 |
| 20260508190549 | 20 | 220 | 3.2 | 16.1 | 0.00 | 0.00 | 0.00 | 75 | 1015.8 |
| 20260508190047 | 20 | 97 | 4.8 | 16.1 | 0.00 | 0.00 | 0.00 | 76 | 1015.8 |
| 20260508185547 | 20 | 5 | 4.8 | 12.9 | 0.00 | 0.00 | 0.00 | 77 | 1015.8 |
| 20260508185055 | 19 | 5 | 3.2 | 11.3 | 0.00 | 0.00 | 0.00 | 77 | 1015.9 |
| 20260508185048 | 19 | 93 | 3.2 | 9.7 | 0.00 | 0.00 | 0.00 | 77 | 1015.8 |
| 20260508184047 | 19 | 65 | 3.2 | 11.3 | 0.00 | 0.00 | 0.00 | 78 | 1015.9 |
| 20260508183547 | 18 | 157 | 3.2 | 11.3 | 0.00 | 0.00 | 0.00 | 79 | 1015.9 |
| 20260508183047 | 18 | 91 | 3.2 | 11.3 | 0.00 | 0.00 | 0.00 | 80 | 1015.9 |
| 20260508182545 | 18 | 81 | 4.8 | 14.5 | 0.00 | 0.00 | 0.00 | 80 | 1015.9 |
| 20260508182044 | 18 | 25 | 4.8 | 14.5 | 0.00 | 0.00 | 0.00 | 81 | 1015.9 |
| 20260508181543 | 18 | 5 | 4.8 | 19.3 | 0.00 | 0.00 | 0.00 | 82 | 1015.8 |
| 20260508181043 | 18 | 108 | 3.2 | 19.3 | 0.00 | 0.00 | 0.00 | 82 | 1015.9 |
| 20260508180543 | 18 | 207 | 1.6 | 9.7 | 0.00 | 0.00 | 0.00 | 81 | 1015.9 |
| 20260508180043 | 18 | 132 | 1.6 | 11.3 | 0.00 | 0.00 | 0.00 | 81 | 1015.9 |
| 20260508175543 | 18 | 83 | 1.6 | 11.3 | 0.00 | 0.00 | 0.00 | 82 | 1016.0 |
| 20260508175047 | 17 | 107 | 1.6 | 14.5 | 0.00 | 0.00 | 0.00 | 85 | 1015.9 |
| 20260508175043 | 17 | 150 | 1.6 | 14.5 | 0.00 | 0.00 | 0.00 | 83 | 1016.0 |
| 20260508174043 | 17 | 130 | 0.0 | 4.8 | 0.00 | 0.00 | 0.00 | 85 | 1016.0 |
| 20260508173547 | 16 | 169 | 1.6 | 6.4 | 0.00 | 0.00 | 0.00 | 87 | 1016.0 |
| 20260508173543 | 16 | 181 | 1.6 | 6.4 | 0.00 | 0.00 | 0.00 | 86 | 1016.2 |
| 20260508172541 | 16 | 202 | 1.6 | 4.8 | 0.00 | 0.00 | 0.00 | 88 | 1016.0 |
| 20260508172041 | 15 | 202 | 1.6 | 4.8 | 0.00 | 0.00 | 0.00 | 88 | 1016.2 |
| 20260508171541 | 15 | 195 | 1.6 | 6.4 | 0.00 | 0.00 | 0.00 | 88 | 1016.0 |
| 20260508171041 | 15 | 204 | 1.6 | 6.4 | 0.00 | 0.00 | 0.00 | 87 | 1016.0 |
| 20260508170541 | 15 | 206 | 1.6 | 6.4 | 0.00 | 0.00 | 0.00 | 87 | 1016.0 |
| 20260508170041 | 15 | 178 | 1.6 | 6.4 | 0.00 | 0.00 | 0.00 | 88 | 1015.9 |
| 20260508165541 | 15 | 186 | 1.6 | 6.4 | 0.00 | 0.00 | 0.00 | 88 | 1016.0 |
| 20260508165041 | 15 | 195 | 1.6 | 4.8 | 0.00 | 0.00 | 0.00 | 88 | 1015.9 |
| 20260508164541 | 15 | 178 | 1.6 | 4.8 | 0.00 | 0.00 | 0.00 | 88 | 1015.9 |
| 20260508164042 | 15 | 214 | 1.6 | 4.8 | 0.00 | 0.00 | 0.00 | 88 | 1015.9 |
| 20260508163543 | 16 | 232 | 1.6 | 6.4 | 0.00 | 0.00 | 0.00 | 83 | 1015.9 |
| 20260508163539 | 15 | 213 | 3.2 | 6.4 | 0.00 | 0.00 | 0.00 | 86 | 1015.9 |
| 20260508162539 | 16 | 205 | 1.6 | 6.4 | 0.00 | 0.00 | 0.00 | 80 | 1015.9 |
| 20260508162043 | 18 | 130 | 0.0 | 3.2 | 0.00 | 0.00 | 0.00 | 77 | 1015.8 |
| 20260508162039 | 17 | 184 | 1.6 | 6.4 | 0.00 | 0.00 | 0.00 | 77 | 1015.9 |
| 20260508161642 | 18 | 189 | 0.0 | 6.4 | 0.00 | 0.00 | 0.00 | 76 | 1015.8 |
| 20260508161142 | 18 | 200 | 0.0 | 3.2 | 0.00 | 0.00 | 0.00 | 75 | 1015.8 |
| 20260508160037 | 18 | 130 | 0.0 | 4.8 | 0.00 | 0.00 | 0.00 | 78 | 1015.8 |
| 20260508155537 | 18 | 142 | 0.0 | 4.8 | 0.00 | 0.00 | 0.00 | 77 | 1015.8 |
| 20260508155041 | 18 | 89 | 0.0 | 4.8 | 0.00 | 0.00 | 0.00 | 78 | 1015.7 |
| 20260508155037 | 18 | 175 | 1.6 | 4.8 | 0.00 | 0.00 | 0.00 | 77 | 1015.8 |
| 20260508154037 | 18 | 40 | 0.0 | 3.2 | 0.00 | 0.00 | 0.00 | 79 | 1015.7 |
| 20260508153537 | 17 | 40 | 0.0 | 3.2 | 0.00 | 0.00 | 0.00 | 80 | 1015.8 |
| 20260508153037 | 17 | 5 | 0.0 | 3.2 | 0.00 | 0.00 | 0.00 | 79 | 1015.8 |
| 20260508152537 | 17 | 192 | 0.0 | 3.2 | 0.00 | 0.00 | 0.00 | 78 | 1015.7 |
| 20260508152037 | 17 | 0 | 0.0 | 1.6 | 0.00 | 0.00 | 0.00 | 78 | 1015.8 |
| 20260508151537 | 17 | 0 | 0.0 | 1.6 | 0.00 | 0.00 | 0.00 | 79 | 1015.9 |
| 20260508151041 | 16 | 0 | 0.0 | 4.8 | 0.00 | 0.00 | 0.00 | 80 | 1015.8 |
| 20260508151037 | 16 | 0 | 0.0 | 4.8 | 0.00 | 0.00 | 0.00 | 78 | 1015.8 |
| 20260508150036 | 16 | 0 | 3.2 | 6.4 | 0.00 | 0.00 | 0.00 | 76 | 1015.9 |
| 20260508145541 | 16 | 49 | 3.2 | 6.4 | 0.00 | 0.00 | 0.00 | 78 | 1015.7 |
| 20260508145536 | 16 | 0 | 4.8 | 6.4 | 0.00 | 0.00 | 0.00 | 78 | 1015.7 |
| 20260508144538 | 16 | 49 | 1.6 | 6.4 | 0.00 | 0.00 | 0.00 | 77 | 1015.8 |
| 20260508144037 | 16 | 49 | 1.6 | 4.8 | 0.00 | 0.00 | 0.00 | 79 | 1015.8 |
| 20260508143536 | 16 | 49 | 3.2 | 4.8 | 0.00 | 0.00 | 0.00 | 77 | 1015.8 |
| 20260508143037 | 16 | 49 | 1.6 | 4.8 | 0.00 | 0.00 | 0.00 | 76 | 1015.8 |
| 20260508142534 | 16 | 49 | 1.6 | 4.8 | 0.00 | 0.00 | 0.00 | 78 | 1015.8 |
| 20260508142035 | 17 | 49 | 0.0 | 3.2 | 0.00 | 0.00 | 0.00 | 74 | 1015.8 |
| 20260508141536 | 17 | 49 | 1.6 | 3.2 | 0.00 | 0.00 | 0.00 | 74 | 1015.8 |
| 20260508141036 | 16 | 49 | 1.6 | 3.2 | 0.00 | 0.00 | 0.00 | 74 | 1015.8 |
| 20260508140536 | 16 | 49 | 0.0 | 4.8 | 0.00 | 0.00 | 0.00 | 76 | 1015.7 |
| 20260508140035 | 16 | 49 | 0.0 | 4.8 | 0.00 | 0.00 | 0.00 | 76 | 1015.7 |
| 20260508135536 | 16 | 192 | 0.0 | 3.2 | 0.00 | 0.00 | 0.00 | 76 | 1015.7 |
| 20260508135036 | 16 | 192 | 0.0 | 3.2 | 0.00 | 0.00 | 0.00 | 76 | 1015.7 |
| 20260508134540 | 16 | 94 | 1.6 | 3.2 | 0.00 | 0.00 | 0.00 | 76 | 1015.5 |
| 20260508134536 | 16 | 94 | 0.0 | 1.6 | 0.00 | 0.00 | 0.00 | 76 | 1015.6 |
| 20260508133535 | 16 | 94 | 1.6 | 3.2 | 0.00 | 0.00 | 0.00 | 76 | 1015.6 |
| 20260508133040 | 16 | 94 | 0.0 | 1.6 | 0.00 | 0.00 | 0.00 | 78 | 1015.6 |
| 20260508133035 | 16 | 94 | 0.0 | 3.2 | 0.00 | 0.00 | 0.00 | 77 | 1015.5 |
| 20260508132644 | 15 | 94 | 0.0 | 3.2 | 0.00 | 0.00 | 0.00 | 78 | 1015.5 |
| 20260508131536 | 16 | 94 | 0.0 | 3.2 | 0.00 | 0.00 | 0.00 | 78 | 1015.4 |
| 20260508131036 | 16 | 94 | 1.6 | 3.2 | 0.00 | 0.00 | 0.00 | 77 | 1015.4 |
| 20260508130540 | 16 | 94 | 0.0 | 1.6 | 0.00 | 0.00 | 0.00 | 77 | 1015.3 |
| 20260508130536 | 16 | 94 | 1.6 | 3.2 | 0.00 | 0.00 | 0.00 | 77 | 1015.3 |
| 20260508125535 | 16 | 94 | 0.0 | 0.0 | 0.00 | 0.00 | 0.00 | 77 | 1015.4 |
| 20260508125036 | 16 | 94 | 0.0 | 0.0 | 0.00 | 0.00 | 0.00 | 76 | 1015.4 |
| 20260508124534 | 16 | 94 | 0.0 | 0.0 | 0.00 | 0.00 | 0.00 | 76 | 1015.3 |
| 20260508124033 | 16 | 94 | 0.0 | 3.2 | 0.00 | 0.00 | 0.00 | 76 | 1015.3 |
| 20260508123531 | 16 | 94 | 0.0 | 3.2 | 0.00 | 0.00 | 0.00 | 76 | 1015.3 |
| 20260508123036 | 16 | 94 | 0.0 | 3.2 | 0.00 | 0.00 | 0.00 | 76 | 1015.3 |
| 20260508123031 | 16 | 94 | 0.0 | 3.2 | 0.00 | 0.00 | 0.00 | 78 | 1015.2 |
| 20260508122028 | 16 | 94 | 0.0 | 3.2 | 0.00 | 0.00 | 0.00 | 78 | 1015.2 |
| 20260508121526 | 16 | 94 | 0.0 | 3.2 | 0.00 | 0.00 | 0.00 | 79 | 1015.2 |
| 20260508121026 | 16 | 94 | 0.0 | 3.2 | 0.00 | 0.00 | 0.00 | 79 | 1015.1 |
| 20260508120526 | 15 | 94 | 0.0 | 1.6 | 0.00 | 0.00 | 0.00 | 77 | 1015.1 |
| 20260508120026 | 15 | 94 | 0.0 | 1.6 | 0.00 | 0.00 | 0.00 | 79 | 1015.1 |
| 20260508115526 | 15 | 94 | 0.0 | 1.6 | 0.00 | 0.00 | 0.00 | 80 | 1015.1 |
| 20260508115026 | 15 | 94 | 0.0 | 3.2 | 0.00 | 0.00 | 0.00 | 79 | 1015.1 |
| 20260508114526 | 15 | 94 | 1.6 | 3.2 | 0.00 | 0.00 | 0.00 | 82 | 1015.1 |
| 20260508114026 | 15 | 94 | 1.6 | 3.2 | 0.00 | 0.00 | 0.00 | 80 | 1015.1 |
| 20260508113526 | 15 | 94 | 1.6 | 3.2 | 0.00 | 0.00 | 0.00 | 81 | 1015.1 |
| 20260508113031 | 15 | 264 | 0.0 | 4.8 | 0.00 | 0.00 | 0.00 | 82 | 1015.1 |
| 20260508113025 | 15 | 84 | 1.6 | 3.2 | 0.00 | 0.00 | 0.00 | 82 | 1015.1 |
| 20260508112024 | 15 | 249 | 1.6 | 4.8 | 0.00 | 0.00 | 0.00 | 82 | 1015.1 |
| 20260508111523 | 15 | 200 | 1.6 | 4.8 | 0.00 | 0.00 | 0.00 | 82 | 1015.1 |
| 20260508111022 | 15 | 189 | 1.6 | 4.8 | 0.00 | 0.00 | 0.00 | 81 | 1015.1 |
| 20260508110522 | 15 | 202 | 1.6 | 3.2 | 0.00 | 0.00 | 0.00 | 80 | 1015.1 |
| 20260508110022 | 15 | 191 | 1.6 | 4.8 | 0.00 | 0.00 | 0.00 | 81 | 1015.1 |
| 20260508105523 | 15 | 180 | 3.2 | 6.4 | 0.00 | 0.00 | 0.00 | 82 | 1015.0 |
| 20260508105022 | 15 | 130 | 1.6 | 6.4 | 0.00 | 0.00 | 0.00 | 81 | 1015.0 |
| 20260508104521 | 15 | 19 | 3.2 | 6.4 | 0.00 | 0.00 | 0.00 | 80 | 1015.0 |
| 20260508104022 | 15 | 35 | 3.2 | 6.4 | 0.00 | 0.00 | 0.00 | 82 | 1015.1 |
| 20260508103520 | 15 | 67 | 1.6 | 4.8 | 0.00 | 0.00 | 0.00 | 80 | 1015.2 |
| 20260508103020 | 15 | 67 | 3.2 | 6.4 | 0.00 | 0.00 | 0.00 | 80 | 1015.1 |
| 20260508102520 | 15 | 45 | 4.8 | 8.0 | 0.00 | 0.00 | 0.00 | 80 | 1015.0 |
| 20260508102020 | 15 | 55 | 4.8 | 8.0 | 0.00 | 0.00 | 0.00 | 80 | 1015.0 |
| 20260508101520 | 15 | 33 | 6.4 | 9.7 | 0.00 | 0.00 | 0.00 | 80 | 1015.0 |
| 20260508101020 | 15 | 38 | 6.4 | 9.7 | 0.00 | 0.00 | 0.00 | 81 | 1015.2 |
| 20260508100520 | 14 | 43 | 4.8 | 8.0 | 0.00 | 0.00 | 0.00 | 81 | 1015.1 |
| 20260508100024 | 14 | 55 | 1.6 | 8.0 | 0.00 | 0.00 | 0.00 | 83 | 1015.1 |
| 20260508100020 | 14 | 74 | 3.2 | 8.0 | 0.00 | 0.00 | 0.00 | 83 | 1015.1 |
| 20260508095628 | 14 | 25 | 3.2 | 8.0 | 0.00 | 0.00 | 0.00 | 84 | 1015.2 |
| 20260508094522 | 14 | 355 | 8.0 | 12.9 | 0.00 | 0.00 | 0.00 | 84 | 1015.1 |
| 20260508094518 | 14 | 310 | 6.4 | 9.7 | 0.00 | 0.00 | 0.00 | 84 | 1015.1 |
| 20260508094125 | 14 | 315 | 9.7 | 14.5 | 0.00 | 0.00 | 0.00 | 84 | 1015.2 |
| 20260508093020 | 14 | 355 | 9.7 | 14.5 | 0.00 | 0.00 | 0.00 | 84 | 1015.1 |
| 20260508093016 | 14 | 29 | 9.7 | 12.9 | 0.00 | 0.00 | 0.00 | 84 | 1015.1 |
| 20260508092016 | 14 | 42 | 9.7 | 12.9 | 0.00 | 0.00 | 0.00 | 84 | 1015.2 |
| 20260508091516 | 14 | 24 | 8.0 | 12.9 | 0.00 | 0.00 | 0.00 | 82 | 1015.1 |
| 20260508091016 | 15 | 29 | 6.4 | 9.7 | 0.00 | 0.00 | 0.00 | 78 | 1015.2 |
| 20260508090513 | 16 | 20 | 6.4 | 11.3 | 0.00 | 0.00 | 0.00 | 76 | 1015.1 |
| 20260508090013 | 16 | 20 | 6.4 | 11.3 | 0.00 | 0.00 | 0.00 | 76 | 1015.2 |
| 20260508085517 | 16 | 11 | 4.8 | 8.0 | 0.00 | 0.00 | 0.00 | 76 | 1015.3 |
| 20260508085513 | 16 | 20 | 6.4 | 8.0 | 0.00 | 0.00 | 0.00 | 77 | 1015.3 |
| 20260508084515 | 16 | 253 | 1.6 | 4.8 | 0.00 | 0.00 | 0.00 | 76 | 1015.3 |
| 20260508084511 | 16 | 18 | 3.2 | 6.4 | 0.00 | 0.00 | 0.00 | 76 | 1015.3 |
| 20260508083511 | 16 | 263 | 1.6 | 3.2 | 0.00 | 0.00 | 0.00 | 76 | 1015.4 |
| 20260508083015 | 16 | 36 | 1.6 | 3.2 | 0.00 | 0.00 | 0.00 | 75 | 1015.4 |
| 20260508083011 | 16 | 270 | 1.6 | 3.2 | 0.00 | 0.00 | 0.00 | 75 | 1015.4 |
| 20260508082011 | 17 | 202 | 0.0 | 1.6 | 0.00 | 0.00 | 0.00 | 75 | 1015.5 |
| 20260508081511 | 16 | 163 | 0.0 | 1.6 | 0.00 | 0.00 | 0.00 | 76 | 1015.5 |
| 20260508081011 | 16 | 169 | 0.0 | 0.0 | 0.00 | 0.00 | 0.00 | 77 | 1015.6 |
| 20260508080508 | 16 | 152 | 0.0 | 0.0 | 0.00 | 0.00 | 0.00 | 76 | 1015.7 |
| 20260508080008 | 16 | 127 | 0.0 | 0.0 | 0.00 | 0.00 | 0.00 | 77 | 1015.7 |
| 20260508075507 | 16 | 130 | 0.0 | 0.0 | 0.00 | 0.00 | 0.00 | 77 | 1015.8 |
| 20260508075005 | 16 | 127 | 0.0 | 1.6 | 0.00 | 0.00 | 0.00 | 78 | 1015.8 |
| 20260508074505 | 15 | 112 | 0.0 | 4.8 | 0.00 | 0.00 | 0.00 | 78 | 1015.8 |
| 20260508074003 | 16 | 61 | 0.0 | 4.8 | 0.00 | 0.00 | 0.00 | 78 | 1015.7 |
| 20260508073503 | 16 | 355 | 0.0 | 4.8 | 0.00 | 0.00 | 0.00 | 78 | 1015.9 |
| 20260508073007 | 16 | 355 | 0.0 | 4.8 | 0.00 | 0.00 | 0.00 | 75 | 1015.9 |
| 20260508073003 | 16 | 5 | 0.0 | 4.8 | 0.00 | 0.00 | 0.00 | 77 | 1015.8 |
| 20260508072004 | 17 | 355 | 0.0 | 3.2 | 0.00 | 0.00 | 0.00 | 73 | 1015.8 |
| 20260508071503 | 17 | 349 | 0.0 | 3.2 | 0.00 | 0.00 | 0.00 | 72 | 1015.7 |
| 20260508071009 | 18 | 31 | 1.6 | 8.0 | 0.00 | 0.00 | 0.00 | 72 | 1015.6 |
| 20260508071003 | 17 | 31 | 0.0 | 3.2 | 0.00 | 0.00 | 0.00 | 72 | 1015.7 |
| 20260508070004 | 18 | 88 | 3.2 | 8.0 | 0.00 | 0.00 | 0.00 | 72 | 1015.7 |
| 20260508065505 | 18 | 21 | 6.4 | 8.0 | 0.00 | 0.00 | 0.00 | 73 | 1015.7 |
| 20260508065501 | 18 | 71 | 4.8 | 8.0 | 0.00 | 0.00 | 0.00 | 72 | 1015.7 |
| 20260508064501 | 18 | 46 | 6.4 | 8.0 | 0.00 | 0.00 | 0.00 | 72 | 1015.7 |
| 20260508064005 | 18 | 61 | 3.2 | 6.4 | 0.00 | 0.00 | 0.00 | 71 | 1015.7 |
| 20260508064001 | 18 | 40 | 4.8 | 8.0 | 0.00 | 0.00 | 0.00 | 71 | 1015.7 |
| 20260508063001 | 18 | 331 | 4.8 | 6.4 | 0.00 | 0.00 | 0.00 | 72 | 1015.7 |
| 20260508062501 | 18 | 321 | 4.8 | 6.4 | 0.00 | 0.00 | 0.00 | 70 | 1015.6 |
| 20260508062001 | 18 | 30 | 4.8 | 8.0 | 0.00 | 0.00 | 0.00 | 70 | 1015.6 |
| 20260508061501 | 18 | 30 | 4.8 | 8.0 | 0.00 | 0.00 | 0.00 | 70 | 1015.7 |
| 20260508061000 | 18 | 340 | 4.8 | 8.0 | 0.00 | 0.00 | 0.00 | 68 | 1015.6 |
| 20260508060459 | 18 | 332 | 6.4 | 8.0 | 0.00 | 0.00 | 0.00 | 66 | 1015.6 |
| 20260508055959 | 18 | 9 | 6.4 | 11.3 | 0.00 | 0.00 | 0.00 | 66 | 1015.7 |
| 20260508055459 | 18 | 22 | 8.0 | 11.3 | 0.00 | 0.00 | 0.00 | 65 | 1015.7 |
| 20260508054959 | 19 | 22 | 8.0 | 12.9 | 0.00 | 0.00 | 0.00 | 65 | 1015.7 |
| 20260508054503 | 19 | 56 | 8.0 | 12.9 | 0.00 | 0.00 | 0.00 | 66 | 1015.7 |
| 20260508054459 | 19 | 36 | 8.0 | 12.9 | 0.00 | 0.00 | 0.00 | 65 | 1015.7 |
| 20260508053459 | 19 | 58 | 8.0 | 12.9 | 0.00 | 0.00 | 0.00 | 67 | 1015.7 |
| 20260508052959 | 19 | 53 | 6.4 | 9.7 | 0.00 | 0.00 | 0.00 | 67 | 1015.7 |
| 20260508052458 | 19 | 60 | 6.4 | 9.7 | 0.00 | 0.00 | 0.00 | 67 | 1015.7 |
| 20260508051958 | 19 | 59 | 3.2 | 9.7 | 0.00 | 0.00 | 0.00 | 67 | 1015.7 |
| 20260508051457 | 18 | 55 | 3.2 | 6.4 | 0.00 | 0.00 | 0.00 | 67 | 1015.7 |
| 20260508051002 | 18 | 0 | 3.2 | 6.4 | 0.00 | 0.00 | 0.00 | 65 | 1015.7 |
| 20260508050957 | 18 | 0 | 3.2 | 4.8 | 0.00 | 0.00 | 0.00 | 65 | 1015.7 |
| 20260508050000 | 18 | 0 | 1.6 | 6.4 | 0.00 | 0.00 | 0.00 | 67 | 1015.7 |
| 20260508045956 | 18 | 0 | 1.6 | 6.4 | 0.00 | 0.00 | 0.00 | 65 | 1015.7 |
| 20260508044957 | 19 | 0 | 1.6 | 6.4 | 0.00 | 0.00 | 0.00 | 66 | 1015.6 |
| 20260508044456 | 19 | 0 | 1.6 | 6.4 | 0.00 | 0.00 | 0.00 | 67 | 1015.6 |
| 20260508043957 | 19 | 22 | 0.0 | 4.8 | 0.00 | 0.00 | 0.00 | 66 | 1015.7 |
| 20260508043456 | 19 | 22 | 1.6 | 4.8 | 0.00 | 0.00 | 0.00 | 67 | 1015.6 |
| 20260508042957 | 20 | 26 | 1.6 | 3.2 | 0.00 | 0.00 | 0.00 | 66 | 1015.5 |
| 20260508042457 | 20 | 40 | 0.0 | 3.2 | 0.00 | 0.00 | 0.00 | 65 | 1015.4 |
| 20260508041957 | 20 | 40 | 0.0 | 1.6 | 0.00 | 0.00 | 0.00 | 64 | 1015.4 |
| 20260508041456 | 20 | 40 | 0.0 | 1.6 | 0.00 | 0.00 | 0.00 | 64 | 1015.3 |
| 20260508040955 | 20 | 40 | 0.0 | 1.6 | 0.00 | 0.00 | 0.00 | 64 | 1015.3 |
| 20260508040455 | 20 | 40 | 0.0 | 3.2 | 0.00 | 0.00 | 0.00 | 64 | 1015.2 |
| 20260508035955 | 20 | 40 | 1.6 | 3.2 | 0.00 | 0.00 | 0.00 | 64 | 1015.3 |
| 20260508035455 | 20 | 32 | 0.0 | 3.2 | 0.00 | 0.00 | 0.00 | 64 | 1015.1 |
| 20260508034955 | 20 | 221 | 0.0 | 0.0 | 0.00 | 0.00 | 0.00 | 64 | 1015.1 |
| 20260508034454 | 20 | 221 | 0.0 | 0.0 | 0.00 | 0.00 | 0.00 | 64 | 1015.1 |
| 20260508033955 | 20 | 221 | 0.0 | 1.6 | 0.00 | 0.00 | 0.00 | 65 | 1015.1 |
| 20260508033455 | 20 | 221 | 0.0 | 1.6 | 0.00 | 0.00 | 0.00 | 65 | 1015.1 |
| 20260508032959 | 20 | 221 | 0.0 | 1.6 | 0.00 | 0.00 | 0.00 | 64 | 1014.9 |
| 20260508032955 | 20 | 221 | 0.0 | 1.6 | 0.00 | 0.00 | 0.00 | 64 | 1014.9 |
| 20260508031956 | 20 | 221 | 0.0 | 6.4 | 0.00 | 0.00 | 0.00 | 65 | 1014.9 |
| 20260508031454 | 20 | 221 | 1.6 | 6.4 | 0.00 | 0.00 | 0.00 | 64 | 1014.8 |
| 20260508030954 | 20 | 221 | 3.2 | 6.4 | 0.00 | 0.00 | 0.00 | 64 | 1014.8 |
| 20260508030453 | 20 | 221 | 4.8 | 11.3 | 0.00 | 0.00 | 0.00 | 63 | 1014.6 |
| 20260508025953 | 20 | 230 | 6.4 | 11.3 | 0.00 | 0.00 | 0.00 | 63 | 1014.5 |
| 20260508025450 | 21 | 225 | 6.4 | 12.9 | 0.00 | 0.00 | 0.00 | 62 | 1014.5 |
| 20260508024950 | 21 | 221 | 6.4 | 12.9 | 0.00 | 0.00 | 0.00 | 61 | 1014.5 |
| 20260508024451 | 21 | 233 | 4.8 | 9.7 | 0.00 | 0.00 | 0.00 | 60 | 1014.5 |
| 20260508023951 | 21 | 253 | 3.2 | 9.7 | 0.00 | 0.00 | 0.00 | 60 | 1014.5 |
| 20260508023451 | 21 | 223 | 1.6 | 4.8 | 0.00 | 0.00 | 0.00 | 59 | 1014.4 |
| 20260508022951 | 21 | 273 | 0.0 | 3.2 | 0.00 | 0.00 | 0.00 | 59 | 1014.4 |
| 20260508022451 | 21 | 273 | 0.0 | 3.2 | 0.00 | 0.00 | 0.00 | 59 | 1014.3 |
| 20260508021951 | 21 | 273 | 1.6 | 3.2 | 0.00 | 0.00 | 0.00 | 60 | 1014.3 |
| 20260508021451 | 21 | 273 | 0.0 | 3.2 | 0.00 | 0.00 | 0.00 | 60 | 1014.3 |
| 20260508020951 | 21 | 273 | 0.0 | 6.4 | 0.00 | 0.00 | 0.00 | 59 | 1014.3 |
| 20260508020455 | 21 | 273 | 3.2 | 9.7 | 0.00 | 0.00 | 0.00 | 62 | 1014.2 |
| 20260508020451 | 21 | 273 | 0.0 | 6.4 | 0.00 | 0.00 | 0.00 | 60 | 1014.2 |
| 20260508015451 | 21 | 273 | 4.8 | 9.7 | 0.00 | 0.00 | 0.00 | 62 | 1014.2 |
| 20260508014951 | 21 | 267 | 4.8 | 9.7 | 0.00 | 0.00 | 0.00 | 62 | 1014.2 |
| 20260508014451 | 22 | 267 | 3.2 | 9.7 | 0.00 | 0.00 | 0.00 | 60 | 1014.3 |
| 20260508013955 | 22 | 286 | 4.8 | 8.0 | 0.00 | 0.00 | 0.00 | 58 | 1014.2 |
| 20260508013951 | 22 | 250 | 3.2 | 8.0 | 0.00 | 0.00 | 0.00 | 59 | 1014.3 |
| 20260508012951 | 22 | 275 | 4.8 | 11.3 | 0.00 | 0.00 | 0.00 | 58 | 1014.2 |
| 20260508012455 | 23 | 311 | 3.2 | 8.0 | 0.00 | 0.00 | 0.00 | 57 | 1014.2 |
| 20260508012451 | 23 | 288 | 4.8 | 11.3 | 0.00 | 0.00 | 0.00 | 57 | 1014.1 |